EST,Max TemperatureF,Mean TemperatureF,Min TemperatureF,Max Dew PointF,MeanDew PointF,Min DewpointF,Max Humidity, Mean Humidity, Min Humidity, Max Sea Level PressureIn, Mean Sea Level PressureIn, Min Sea Level PressureIn, Max VisibilityMiles, Mean VisibilityMiles, Min VisibilityMiles, Max Wind SpeedMPH, Mean Wind SpeedMPH, Max Gust SpeedMPH,PrecipitationIn, CloudCover, Events, WindDirDegrees
2012-11-1,53,48,42,41,38,36,81,71,58,29.57,29.54,29.51,10,10,10,13,7,,0.00,7,,201
2012-11-2,53,47,42,41,35,31,91,66,49,29.66,29.59,29.56,10,10,10,14,7,20,0.00,7,,282
2012-11-3,52,44,33,34,31,28,84,62,46,29.86,29.77,29.66,10,10,2,16,8,24,0.00,5,,307
2012-11-4,52,38,26,33,29,26,95,68,47,29.96,29.92,29.87,10,10,7,12,5,,0.00,3,,319
2012-11-5,42,31,20,27,21,17,89,58,42,30.17,30.05,29.96,10,10,10,13,8,21,0.00,6,,13
2012-11-6,60,38,16,46,19,14,92,69,39,30.25,30.19,30.08,10,10,10,7,2,,0.00,0,,16
2012-11-7,36,30,24,28,22,15,87,63,43,30.16,29.93,29.80,10,8,2,28,15,37,0.02,7,Rain-Snow,32
2012-11-8,41,36,32,34,29,23,87,74,58,29.83,29.75,29.70,10,10,3,30,20,38,0.21,8,Rain-Snow,20
2012-11-9,52,42,32,31,24,17,80,52,26,30.14,30.01,29.84,10,10,10,20,9,26,0.00,1,,323
2012-11-10,56,42,29,37,33,29,95,71,38,30.44,30.27,30.14,10,8,2,8,2,,0.00,4,,302
2012-11-11,63,52,40,47,43,35,92,74,51,30.49,30.45,30.40,10,10,10,14,4,,0.00,4,,181
2012-11-12,64,54,44,59,52,45,100,90,68,30.46,30.36,30.20,10,7,0,17,8,24,0.00,5,Fog-Rain,182
2012-11-13,62,50,34,59,46,25,100,85,58,30.45,30.23,30.10,10,9,2,22,11,33,0.24,7,Rain,323
2012-11-14,46,35,24,27,24,21,96,68,42,30.56,30.50,30.45,10,10,10,10,6,,0.00,1,,22
2012-11-15,43,34,25,27,24,21,92,72,49,30.49,30.40,30.32,10,10,10,9,6,,0.00,1,,18
2012-11-16,44,34,25,28,24,20,95,71,37,30.45,30.35,30.30,10,10,10,9,3,,0.00,1,,1
2012-11-17,48,36,23,30,24,20,94,72,32,30.67,30.59,30.46,10,10,10,9,3,,0.00,0,,19
2012-11-18,49,35,21,31,24,19,100,80,45,30.73,30.67,30.63,10,8,2,7,2,,0.00,0,,37
2012-11-19,49,34,20,32,25,19,96,83,50,30.62,30.43,30.28,10,9,2,6,3,,0.00,0,,25
2012-11-20,48,34,20,30,23,19,100,86,43,30.27,30.22,30.14,10,5,1,6,1,,0.00,0,,4
2012-11-21,52,38,25,29,27,24,94,72,37,30.27,30.23,30.18,10,10,10,9,2,,0.00,1,,17
2012-11-22,53,38,23,38,28,23,100,91,50,30.29,30.19,30.14,10,5,1,4,0,,0.00,0,,237
2012-11-23,57,40,24,46,32,23,100,94,51,30.14,29.99,29.65,10,3,0,15,2,,0.00,4,Fog-Rain,174
2012-11-24,46,39,32,46,27,15,100,62,39,29.72,29.65,29.60,10,10,6,25,12,36,0.01,6,Rain,288
2012-11-25,37,32,28,23,19,16,73,58,48,30.09,29.83,29.73,10,10,10,22,14,30,0.00,3,,268
2012-11-26,45,34,23,25,23,21,91,64,38,30.26,30.07,29.89,10,10,9,17,7,23,0.00,4,,240
2012-11-27,33,28,23,34,31,21,100,96,86,30.33,30.27,30.23,10,4,0,5,1,,0.04,7,Fog-Rain-Snow,15
2012-11-28,39,32,26,32,28,20,100,84,51,30.22,30.20,30.13,10,10,4,9,6,,0.00,6,,334
2012-11-29,44,34,24,25,22,15,84,61,31,30.28,30.22,30.18,10,10,10,14,9,,0.00,2,,217
2012-11-30,35,32,29,27,14,3,80,50,30,30.54,30.44,30.25,10,10,10,12,7,,0.00,8,,10